Hlavní strana
METAR-TAF:

METAR-TAF

Letiště :

Greenville, Jižní Karolína, Spojené státy americké

zeměpisná šířka: 34-45-30N, zeměpisná délka: 082-22-35W, výška: 291 m

Aktuální stav počasí

Zpráva byla vytvořena před 17 minutami, v 11:35 UTC
Severní vítr 4 kt
Teplota 2°C
Vlhkost vzduchu 37%
Tlak 1026 hPa
Viditelnost: 16.1 km
Jasno

METAR: KGYH 071135Z AUTO 01004KT 10SM CLR 02/M11 A3030 RMK AO2

Čas: 06:52 (11:52 UTC)


TAF: chybějící

Stav a předpovědi počasí z více než 4 000 letišť (zprávy METAR a TAF).

Červené a žluté tečky na mapě představují dostupné meteorologické stanice.

Když kurzor umístíte na tečku, zobrazí se název stanice.

Pak kliknutím zobrazíte stav a předpověď počasí.

Chcete-li změnit mapu, kliknutím na zelené tlačítko se znaménkem +mapu přiblížíte, kliknutím na zelené tlačítko se znaménkem – mapu oddálíte a kliknutím na zelené šipky přejdete na sousední mapy.


METAR-TAF: